User: anonymous   Login
Location: Unspecified
(0.0000°N, 0.0000°E)
Time: 08:21:27
(UTC+00:00)
Language:

APRIZESAT 9 - Orbit

View from above orbital plane
View from above orbital plane
View from above satellite
View from above satellite

Ground track
Ground track

The orbit data is extracted from the following two-line orbital elements,

1 40018U 14033J   18267.56498492 +.00000053 +00000-0 +16736-4 0  9990
2 40018 097.7767 130.0857 0070059 264.0075 095.3145 14.69891106228708
Epoch (UTC): 24 September 2018 13:33:34
Eccentricity: 0.0070059
inclination: 97.7767°
perigee height: 612 km
apogee height: 711 km
right ascension of ascending node: 130.0857°
argument of perigee: 264.0075°
revolutions per day: 14.69891106
mean anomaly at epoch: 95.3145°
orbit number at epoch: 22870

The dashed part of the orbit path shows where the satellite is in the earth's shadow,  

DLR